User: anonymous   Login
Location: Santa Cristina
(46.5667°N, 11.7167°E)
Time: 04:10:24
(UTC+00:00)
Language:

Cosmos 1844 Rocket - Orbit

View from above orbital plane
View from above orbital plane
View from above satellite
View from above satellite

Ground track
Ground track

The orbit data is extracted from the following two-line orbital elements,

1 17974U 87041B   21174.43578538 -.00000170  00000-0 -60471-4 0  9998
2 17974  71.0092  58.4006 0015643 307.3594 225.1156 14.17274773764330
Epoch (UTC): 23 June 2021 10:27:31
Eccentricity: 0.0015643
inclination: 71.0092°
perigee height: 823 km
apogee height: 846 km
right ascension of ascending node: 58.4006°
argument of perigee: 307.3594°
revolutions per day: 14.17274773
mean anomaly at epoch: 225.1156°
orbit number at epoch: 76433

The dashed part of the orbit path shows where the satellite is in the earth's shadow,  

DLR